[[{"header":{"parameterUnit":"m.s-1","parameterCategory":1,"la1":30.2991,"la2":30.254,"lo1":-89.0895,"lo2":-89.0444,"dy":0.0017,"dx":0.0017,"nx":28,"ny":28,"refTime":"2025-08-09T03:00:00:Z","depth":0,"parameterNumber":2,"parameterNumberName":"U-component_of_WINDS"},"data":[0,0,0,0,0,0,0,0,0,0,0,0,0,0,0,0,0,0,0,0,0,0,0,0,0,0,0,0,0,0,0,0,0,0,0,0,0,0,0,0,0,0,0,0,0,0,0,0,0,0,0,0,0,0,0,0,0,0,-2.0237,-2.0236,0,-2.0209,-2.0208,-2.0208,-2.0142,-2.0141,-2.014,-2.0138,-2.0113,-2.0114,-2.0114,0,0,0,0,0,0,0,0,0,0,0,0,0,-2.0239,-2.0239,-2.0237,-2.0236,-2.0236,-2.0209,-2.0208,-2.0208,-2.0143,-2.0141,-2.0139,-2.0138,-2.0113,-2.0114,-2.0114,0,0,0,0,0,0,0,0,0,0,0,0,0,-2.0227,-2.0239,-2.0237,-2.02,-2.0196,-2.0209,-2.0208,-2.0208,-2.0143,-2.0141,-2.0139,-2.0137,-2.0113,-2.0114,-2.0115,-2.0161,0,0,-2.0117,-2.0118,0,0,0,0,0,0,0,0,-2.0228,-2.0227,-2.0206,-2.0203,-2.0199,-2.0177,-2.02,-2.0192,-2.0144,-2.0163,-2.0138,-2.0136,-2.0136,-2.0135,-2.0135,-2.016,-2.0159,-2.0117,-2.0118,-2.0118,-2.0119,0,0,0,0,0,0,0,-2.0229,-2.0228,-2.0226,-2.0206,-2.0201,-2.0187,-2.0183,-2.0198,-2.0162,-2.0162,-2.0157,-2.0154,-2.0134,-2.0134,-2.0133,-2.0159,-2.0117,-2.0118,-2.0119,-2.0119,-2.0225,-2.0227,0,0,0,0,0,0,-2.0234,-2.0229,-2.0227,-2.0225,-2.0208,-2.0188,-2.0184,-2.0186,-2.0161,-2.0156,-2.0156,-2.0151,-2.0133,-2.0132,-2.0132,-2.0188,-2.0118,-2.0119,-2.012,-2.0223,-2.0226,-2.0228,0,0,0,0,0,0,-2.0234,-2.0234,-2.0228,-2.0226,-2.0224,-2.019,-2.0193,-2.0187,-2.0186,-2.0157,-2.0151,-2.0162,-2.0132,-2.0131,-2.0155,-2.0186,-2.012,-2.012,-2.022,-2.0224,-2.0227,-2.0299,0,0,0,0,0,0,-2.0235,-2.0235,-2.0251,-2.0226,-2.0224,-2.025,-2.0195,-2.0187,-2.0188,-2.0181,-2.0161,-2.0156,-2.013,-2.0154,-2.0156,-2.0186,-2.0121,-2.0217,-2.0222,-2.0226,-2.0293,-2.0304,-2.0313,0,0,0,0,0,-2.0235,-2.0272,-2.0252,-2.0252,-2.0243,-2.0252,-2.025,-2.0218,-2.019,-2.0207,-2.0189,-2.0157,-2.0182,-2.0157,-2.0159,-2.019,-2.0215,-2.0221,-2.0226,-2.0289,-2.0302,-2.0313,0,0,0,0,0,0,-2.0302,-2.0268,-2.0246,-2.0276,-2.0267,-2.024,-2.0261,-2.0233,-2.0233,-2.0227,-2.0188,-2.0184,-2.0215,-2.0204,-2.0177,-2.0236,-2.0194,-2.0199,-2.0241,-2.0254,-2.0263,-2.0266,-2.0122,0,0,0,0,0,-2.032,-2.0329,-2.0299,-2.0329,-2.0325,-2.0294,-2.0297,-2.0273,-2.0263,-2.0259,-2.0242,-2.0235,-2.0241,-2.0247,-2.0251,-2.0291,-2.0288,-2.0313,-2.0323,-2.0332,-2.0338,-2.0362,-2.0374,-2.0245,-2.0245,-2.0245,0,0,-2.0358,-2.0341,-2.0349,-2.0342,-2.0332,-2.0344,-2.0291,-2.0305,-2.0314,-2.0261,-2.0284,-2.0271,-2.0261,-2.0294,-2.0308,-2.0286,-2.0372,-2.0338,-2.0345,-2.0346,-2.0368,-2.0381,-2.0392,-2.0248,-2.0248,-2.0247,0,0,-2.0434,-2.042,-2.0445,-2.0437,-2.0423,-2.0402,-2.0408,-2.0386,-2.0376,-2.0397,-2.0359,-2.037,-2.0381,-2.0376,-2.0375,-2.0451,-2.0423,-2.0454,-2.0506,-2.053,-2.054,-2.0549,-2.058,-2.059,-2.0459,-2.046,-2.046,0,-2.0484,-2.0498,-2.0461,-2.0478,-2.0478,-2.043,-2.0456,-2.045,-2.0439,-2.0441,-2.0416,-2.0431,-2.0421,-2.0454,-2.0473,-2.0472,-2.0481,-2.0456,-2.0541,-2.055,-2.0558,-2.0586,-2.0598,-2.0464,-2.0463,-2.0463,-2.0462,0,-2.0561,-2.0572,-2.0593,-2.0584,-2.0585,-2.0607,-2.0576,-2.0582,-2.0559,-2.0542,-2.0566,-2.0552,-2.0554,-2.0559,-2.0536,-2.059,-2.0578,-2.0548,-2.0506,-2.0575,-2.0601,-2.0612,-2.0469,-2.0468,-2.0467,-2.0466,0,0,-2.0678,-2.0649,-2.0658,-2.0654,-2.0636,-2.0644,-2.0665,-2.0666,-2.0674,-2.0668,-2.0686,-2.0698,-2.0671,-2.067,-2.0647,-2.0667,-2.0733,-2.0635,-2.0634,-2.0656,-2.0795,-2.082,-2.0833,-2.0713,-2.0715,-2.0716,-2.0797,0,-2.0751,-2.0783,-2.0752,-2.0792,-2.0803,-2.0759,-2.0777,-2.077,-2.0754,-2.0763,-2.0746,-2.0757,-2.0719,-2.0718,-2.0737,-2.0721,-2.0761,-2.0714,-2.0733,-2.0734,-2.0739,-2.0846,-2.0871,-2.0948,-2.0807,-2.0808,-2.081,0,-2.084,-2.0839,-2.088,-2.0862,-2.0865,-2.0882,-2.0882,-2.089,-2.0882,-2.0869,-2.087,-2.0841,-2.0863,-2.082,-2.0851,-2.082,-2.0826,-2.082,-2.0822,-2.0824,-2.0777,-2.0854,-2.0971,-2.0984,-2.0825,-2.0824,-2.0823,0,-2.0926,-2.0934,-2.096,-2.0957,-2.0936,-2.095,-2.0942,-2.0931,-2.0935,-2.0935,-2.0938,-2.0941,-2.0944,-2.0948,-2.0923,-2.0893,-2.0958,-2.0912,-2.0951,-2.0952,-2.0968,-2.0968,-2.1091,-2.0968,-2.0968,-2.0968,-2.0967,0,-2.1012,-2.1039,-2.0998,-2.1014,-2.1045,-2.101,-2.1041,-2.1029,-2.102,-2.1035,-2.0997,-2.1012,-2.0976,-2.0988,-2.0968,-2.0999,-2.1,-2.0992,-2.0987,-2.0997,-2.0999,-2.1002,-2.0997,-2.0971,-2.097,-2.0969,-2.0969,0,-2.1113,-2.1086,-2.1112,-2.109,-2.1085,-2.1109,-2.1091,-2.1106,-2.1089,-2.1109,-2.1111,-2.1085,-2.1097,-2.1072,-2.1081,-2.1068,-2.1112,-2.1097,-2.1115,-2.1111,-2.1153,-2.115,-2.1284,-2.1301,-2.1165,-2.1166,-2.1167,0,-2.1171,-2.1191,-2.1171,-2.1178,-2.1172,-2.1183,-2.1187,-2.1154,-2.116,-2.1153,-2.1171,-2.118,-2.1186,-2.1209,-2.1192,-2.12,-2.1186,-2.1233,-2.1187,-2.1198,-2.1191,-2.1191,-2.1194,-2.1243,-2.1244,-2.1246,-2.1247,0,-2.1278,-2.1264,-2.127,-2.1272,-2.1278,-2.1278,-2.1276,-2.1285,-2.125,-2.1259,-2.1271,-2.1276,-2.1286,-2.1297,-2.1301,-2.1295,-2.1267,-2.1261,-2.1271,-2.1283,-2.1293,-2.1291,-2.1143,-2.1259,-2.1257,-2.1257,-2.1256,-2.1255,-2.1361,-2.1378,-2.1367,-2.1376,-2.1371,-2.1371,-2.1385,-2.137,-2.1379,-2.1384,-2.1364,-2.1382,-2.1376,-2.1378,-2.1375,-2.139,-2.137,-2.1383,-2.1387,-2.1392,-2.14,-2.1289,-2.1391,-2.139,-2.139,-2.139,-2.1389,0,-2.1468,-2.1459,-2.1468,-2.1466,-2.1475,-2.1445,-2.1442,-2.1452,-2.1467,-2.1463,-2.147,-2.1486,-2.1497,-2.1481,-2.149,-2.1506,-2.1493,-2.1509,-2.1509,-2.1509,-2.1416,-2.1408,-2.1519,-2.1519,-2.1519,-2.1519,-2.1519,-2.1519,-2.1525,-2.1553,-2.1539,-2.1565,-2.1556,-2.1572,-2.1574,-2.1574,-2.1571,-2.159,-2.1599,-2.1588,-2.1581,-2.1589,-2.1599,-2.1594,-2.1601,-2.1622,-2.1614,-2.1528,-2.1515,-2.1503,-2.1495,-2.1623,-2.1624,-2.1706,-2.1706,-2.1707]},{"header":{"parameterUnit":"m.s-1","parameterCategory":1,"la1":30.2991,"la2":30.254,"lo1":-89.0895,"lo2":-89.0444,"dy":0.0017,"dx":0.0017,"nx":28,"ny":28,"refTime":"2025-08-09T03:00:00:Z","depth":0,"parameterNumber":3,"parameterNumberName":"V-component_of_WINDS"},"data":[0,0,0,0,0,0,0,0,0,0,0,0,0,0,0,0,0,0,0,0,0,0,0,0,0,0,0,0,0,0,0,0,0,0,0,0,0,0,0,0,0,0,0,0,0,0,0,0,0,0,0,0,0,0,0,0,0,0,2.0406,2.0406,0,2.039,2.039,2.039,2.0402,2.0402,2.0403,2.0403,2.0382,2.0381,2.038,0,0,0,0,0,0,0,0,0,0,0,0,0,2.0441,2.044,2.0406,2.0406,2.0405,2.039,2.039,2.039,2.0402,2.0402,2.0403,2.0404,2.0383,2.0381,2.038,0,0,0,0,0,0,0,0,0,0,0,0,0,2.0426,2.044,2.0406,2.041,2.041,2.039,2.039,2.039,2.0402,2.0402,2.0403,2.0404,2.0383,2.0381,2.038,2.0354,0,0,2.0375,2.0374,0,0,0,0,0,0,0,0,2.0426,2.0424,2.0409,2.0409,2.041,2.0399,2.0395,2.0378,2.0401,2.0405,2.0403,2.0404,2.0387,2.0385,2.038,2.0353,2.0352,2.0375,2.0374,2.0373,2.0373,0,0,0,0,0,0,0,2.0428,2.0425,2.0399,2.0409,2.0409,2.0411,2.0409,2.0392,2.0391,2.0404,2.0405,2.0404,2.0387,2.0382,2.038,2.0352,2.0375,2.0374,2.0373,2.0372,2.0302,2.0301,0,0,0,0,0,0,2.0429,2.0426,2.04,2.0399,2.042,2.0409,2.0408,2.0401,2.0392,2.0391,2.0403,2.0404,2.0384,2.0382,2.0379,2.0347,2.0373,2.0372,2.0371,2.0303,2.0302,2.0301,0,0,0,0,0,0,2.043,2.0427,2.0401,2.0413,2.041,2.0408,2.0401,2.0401,2.0395,2.039,2.039,2.0398,2.0385,2.0381,2.036,2.0346,2.0371,2.037,2.0304,2.0303,2.0302,2.0284,0,0,0,0,0,0,2.0431,2.0427,2.0418,2.0412,2.0409,2.0383,2.04,2.04,2.0393,2.0395,2.0385,2.0385,2.0385,2.0363,2.0359,2.0345,2.0368,2.0305,2.0304,2.0302,2.0285,2.0282,2.0279,0,0,0,0,0,2.0432,2.0412,2.0417,2.0414,2.0398,2.0383,2.038,2.0383,2.0392,2.0382,2.0379,2.0385,2.035,2.0361,2.0356,2.0341,2.0306,2.0304,2.0302,2.0287,2.0283,2.0279,0,0,0,0,0,0,2.0414,2.0412,2.0417,2.0396,2.039,2.0385,2.0372,2.0378,2.0368,2.0369,2.0371,2.0369,2.0347,2.0342,2.0355,2.0316,2.0329,2.0326,2.0319,2.0315,2.0312,2.0312,2.0367,0,0,0,0,0,2.0408,2.0397,2.0395,2.0377,2.0373,2.0374,2.0367,2.037,2.0362,2.0359,2.0355,2.0346,2.0333,2.0324,2.0312,2.0286,2.0283,2.0274,2.027,2.0268,2.0264,2.0249,2.0244,2.0294,2.0294,2.0294,0,0,2.0394,2.0392,2.0385,2.0373,2.0368,2.0356,2.0371,2.0357,2.0347,2.0357,2.0337,2.0333,2.0324,2.03,2.0289,2.0296,2.025,2.0265,2.0263,2.0261,2.0246,2.0241,2.0237,2.0293,2.0293,2.0293,0,0,2.0363,2.0361,2.0344,2.034,2.0334,2.0335,2.0331,2.0326,2.0324,2.0305,2.0312,2.0299,2.0277,2.027,2.0263,2.0231,2.0235,2.0227,2.0208,2.0193,2.0189,2.0186,2.0172,2.0167,2.0224,2.0224,2.0224,0,2.0346,2.0328,2.0335,2.032,2.0314,2.0325,2.0308,2.0303,2.0292,2.0287,2.0295,2.0268,2.0262,2.0236,2.0228,2.0224,2.0217,2.0226,2.019,2.0186,2.0183,2.017,2.0165,2.0223,2.0223,2.0223,2.0223,0,2.0307,2.0295,2.0283,2.0274,2.0267,2.0251,2.0253,2.0245,2.0249,2.0248,2.0228,2.0222,2.0209,2.0203,2.0206,2.0178,2.0182,2.019,2.0203,2.0177,2.0164,2.0159,2.0221,2.0222,2.0222,2.0222,0,0,2.0261,2.0258,2.0253,2.0249,2.0244,2.0233,2.0218,2.0207,2.0199,2.0192,2.0177,2.0159,2.0167,2.0159,2.0162,2.0149,2.0121,2.0158,2.0158,2.015,2.0087,2.0079,2.0073,2.0125,2.0125,2.0124,2.0087,0,2.0227,2.0201,2.0207,2.0181,2.0169,2.018,2.0166,2.0161,2.016,2.0149,2.0148,2.0134,2.0147,2.0142,2.013,2.0127,2.0108,2.013,2.0109,2.0108,2.0108,2.0067,2.0058,2.0023,2.0082,2.0082,2.0081,0,2.0184,2.0177,2.015,2.0147,2.0142,2.013,2.0119,2.0109,2.0103,2.0104,2.0096,2.0101,2.0084,2.01,2.0075,2.009,2.0082,2.008,2.0079,2.0074,2.0091,2.0058,2.0012,2.0006,2.0074,2.0074,2.0075,0,2.0149,2.0134,2.0115,2.0112,2.0108,2.0099,2.0097,2.0092,2.0085,2.0076,2.0071,2.006,2.0053,2.0044,2.0045,2.0057,2.0019,2.0035,2.0016,2.0016,2.0005,2.0005,1.9954,2.0005,2.0005,2.0005,2.0005,0,2.0109,2.0091,2.01,2.0088,2.0068,2.0076,2.0055,2.0054,2.005,2.0037,2.0047,2.0034,2.0038,2.0026,2.0027,2.0005,2.0002,2.0,2.0,1.9998,1.9997,1.999,1.9991,2.0004,2.0004,2.0004,2.0005,0,2.0066,2.0071,2.0051,2.0051,2.005,2.0036,2.0034,2.0023,2.0024,2.0008,2.0004,2.0005,1.9991,1.9993,1.9976,1.9977,1.9949,1.9953,1.9951,1.9951,1.9931,1.9931,1.987,1.9862,1.9921,1.9921,1.992,0,2.0038,2.0025,2.0024,2.0017,2.0015,2.0003,1.9997,2.0004,1.9996,1.9989,1.9977,1.9965,1.9954,1.993,1.9928,1.9915,1.9917,1.9897,1.9915,1.9913,1.9913,1.9913,1.9911,1.9892,1.9892,1.9891,1.9891,0,1.9987,1.9991,1.9982,1.9974,1.9966,1.996,1.9954,1.9947,1.9954,1.9945,1.9931,1.9923,1.9908,1.9893,1.9882,1.9878,1.9884,1.9886,1.988,1.9875,1.9874,1.9872,1.9938,1.9886,1.9886,1.9887,1.9887,1.9887,1.9949,1.9938,1.9935,1.9925,1.9922,1.9917,1.9905,1.9907,1.9896,1.9885,1.989,1.9873,1.9868,1.9853,1.9848,1.9834,1.9841,1.9834,1.9831,1.9829,1.9825,1.9879,1.9833,1.9833,1.9833,1.9833,1.9833,0,1.9896,1.9896,1.9887,1.9879,1.9871,1.9882,1.9876,1.9867,1.9854,1.9849,1.984,1.9823,1.981,1.9809,1.9796,1.9785,1.9788,1.9781,1.978,1.9778,1.9821,1.9826,1.9779,1.9779,1.9779,1.9779,1.9779,1.9779,1.9868,1.9848,1.9852,1.9831,1.9831,1.9817,1.9812,1.9807,1.9803,1.9785,1.9775,1.9776,1.9772,1.9759,1.9747,1.9747,1.974,1.9732,1.9732,1.9771,1.9776,1.9781,1.9785,1.9731,1.9731,1.969,1.969,1.969]}]]